الصفحة الرئيسية
METAR-TAF:

METAR-TAF

مطار :

إري, كولورادو, الولايات المتحدة

دائرة عرض: 40-00-37N, خط طول: 105-02-53W, ارتفاع: 1564 متر

مراقبة الطقس الحالي

تاريخ ووقت الإصدار 4 دقيقة قبل الساعة 04:36UTC
ريح 5 عقدة من الشرق
درجة الحرارة 21°درجة مئوية
الرطوبة 73%
ضغط 1023 hPa
الرؤية: 16.1 كم
سماء صافية

METAR: KEIK 180436Z AUTO 10005KT 10SM CLR 21/16 A3020 RMK AO2 T02050160

زمن: 22:40 (04:40 UTC)


TAF: مفقودة

أرصاد الطقس والتوقعات من أكثر من 4000 مطار (تقارير الطقس للمطار METAR والتنبؤ بالطقس بالمطارTAF).

المحطات المتاحة هي النقط الصفراء والحمراء على الخريطة.

حرك المؤشر فوق النقطة لمعرفة اسم المحطة.

ثم انقر لمعرفة أرصاد وتوقعات الطقس.

لتغيير الخارطة: اضغط على الأزرار الخضراء مع رمز الصليب الأسود للتكبير. على الزر الأخضر مع شرطة للتصغير، أو على الأسهم الخضراء للخرائط المجاورة.


METAR-TAF: